{"data":{"norad_id":62123,"epoch":"2026-05-25T04:09:07.652736Z","epoch_age_seconds":60393,"freshness":"FRESH","line1":"1 62123U 24222K   26145.17300524  .00022747  00000+0  83285-3 0  9996","line2":"2 62123  43.0035  64.4577 0001518 278.8004  81.2675 15.27609140 84442","mean_motion":15.2760914,"eccentricity":0.0001518,"inclination_deg":43.0035,"raan_deg":64.4577,"arg_perigee_deg":278.8004,"mean_anomaly_deg":81.2675,"bstar":0.00083285,"rev_number":8444,"period_min":94.264950522619,"perigee_km":481.92032697945,"apogee_km":484.00335658782,"semimajor_km":6861.0988417836,"source":"CELESTRAK","updated_at":"2026-05-25T13:38:19.564312Z"}}